Location: Ailingen
(47.6833°N, 9.5000°E)
Time: 05:46:52
(UTC+00:00)

YAOGAN 1 - Pass Details

Date: 18 November 2025
Orbit: 605 x 607 km, 97.8° (Epoch: 04 December)

Event Time Altitude Azimuth Distance (km) Brightness Sun altitude
Rises 16:42:12 0° 130° (SE) 2,857 5.7 -10.2°
Reaches altitude 10° 16:44:42 10° 116° (ESE) 1,957 4.7 -10.6°
Maximum altitude 16:48:03 23° 64° (ENE) 1,305 3.6 -11.1°
Drops below altitude 10° 16:51:25 10° 12° (NNE) 1,967 4.9 -11.6°
Sets 16:53:56 0° 358° (N) 2,876 5.8 -12.0°
